Muskoka, Ontario

5:00 PM EDT on October 18, 2017 (GMT -0400)
Muskoka

Weather History for CYQA - April, 2013

Change the Weather History Date:

Sunday, April 28, 2013

  Actual Average Record
Temperature  
Mean Temperature 57 °F -  
Max Temperature 73 °F 55 °F 73 °F (2013)
Min Temperature 41 °F 34 °F 23 °F (2006)
Degree Days  
Heating Degree Days 8    
Growing Degree Days 7 (Base 50)    
Moisture  
Dew Point 36 °F    
Average Humidity 46    
Maximum Humidity 76    
Minimum Humidity 19    
Precipitation  
Precipitation 0.00 in - - ()
Sea Level Pressure  
Sea Level Pressure 30.09 in    
Wind  
Wind Speed 9 mph ()    
Max Wind Speed 24 mph    
Max Gust Speed 31 mph    
Visibility 9.1 miles    
Events      
Averages and records for this station are not official NWS values.
T = Trace of Precipitation, MM = Missing Value Source: Averaged Metar Reports

Daily Weather History Graph

Daily Weather History Graph

Search for Another Location

Airport or City:

Trip Planner

Search our weather history database for the weather conditions in past years. The results will help you decide how hot, cold, wet, or windy it might be!

Date:

Astronomy

Apr. 28, 2013 Rise Set
Actual Time 6:10 AM EDT 8:19 PM EDT
Civil Twilight 5:38 AM EDT 8:51 PM EDT
Nautical Twilight 4:59 AM EDT 9:31 PM EDT
Astronomical Twilight 4:15 AM EDT 10:15 PM EDT
Moon 11:52 PM EDT (4/28) 8:20 AM EDT (4/28)
Length of Visible Light 15h 12m
Length of Day
14h 08m
Waning Gibbous, 89% of the Moon is Illuminated
Apr 28
Waning Gibbous
May 2
Last Quarter
May 9
New
May 18
First Quarter
May 25
Full

Hourly Weather History & Observations

Time (EDT) Temp. Windchill Dew Point Humidity Pressure Visibility Wind Dir Wind Speed Gust Speed Precip Events Conditions
12:00 AM 50.0 °F - 37.4 °F 62% 30.22 in 9.0 mi SSE 9.2 mph - N/A   Overcast
1:00 AM 48.2 °F - 37.4 °F 66% 30.22 in 9.0 mi SE 6.9 mph - N/A   Clear
2:00 AM 46 °F - 35 °F 55% 30.21 in 10 mi SE 5.8 mph - -  
2:00 AM 46.4 °F 43.5 °F 35.6 °F 66% 30.21 in 9.0 mi SE 5.8 mph - N/A   Clear
3:00 AM 42.8 °F 38.6 °F 33.8 °F 70% 30.19 in 9.0 mi SE 6.9 mph - N/A   Clear
4:00 AM 42.8 °F 40.1 °F 33.8 °F 70% 30.19 in 9.0 mi SE 4.6 mph - N/A   Clear
5:00 AM 41.0 °F 37.1 °F 33.8 °F 76% 30.18 in 9.0 mi ESE 5.8 mph - N/A   Clear
6:00 AM 42.8 °F 39.3 °F 33.8 °F 70% 30.17 in 9.0 mi ESE 5.8 mph - N/A   Clear
8:00 AM 51 °F - 34 °F 39% 30.17 in 10 mi ESE 6.9 mph - -  
8:00 AM 51.8 °F - 33.8 °F 50% 30.16 in 9.0 mi ESE 6.9 mph - N/A   Clear
9:00 AM 57.2 °F - 35.6 °F 44% 30.15 in 9.0 mi SSE 11.5 mph - N/A   Clear
10:00 AM 62.6 °F - 33.8 °F 34% 30.14 in 9.0 mi SSE 15.0 mph - N/A   Clear
11:00 AM 66.2 °F - 35.6 °F 32% 30.12 in 9.0 mi South 13.8 mph - N/A   Clear
12:00 PM 68.0 °F - 35.6 °F 30% 30.10 in 9.0 mi SSE 16.1 mph - N/A   Clear
1:00 PM 69.8 °F - 37.4 °F 31% 30.08 in 9.0 mi SE 13.8 mph 23.0 mph N/A   Clear
2:00 PM 70 °F - 39 °F 21% 30.06 in 10 mi SSE 16.1 mph - -  
2:00 PM 69.8 °F - 39.2 °F 33% 30.06 in 9.0 mi SSE 15.0 mph 21.9 mph N/A   Clear
3:00 PM 71.6 °F - 33.8 °F 25% 30.04 in 9.0 mi SSE 20.7 mph 29.9 mph N/A   Partly Cloudy
4:00 PM 73.4 °F - 32.0 °F 22% 30.01 in 9.0 mi SSE 24.2 mph 31.1 mph N/A   Clear
5:00 PM 71.6 °F - 26.6 °F 19% 29.99 in 9.0 mi SE 18.4 mph 31.1 mph N/A   Clear
6:00 PM 69.8 °F - 32.0 °F 25% 29.99 in 9.0 mi SE 12.7 mph 21.9 mph N/A   Scattered Clouds
7:00 PM 68.0 °F - 32.0 °F 26% 29.98 in 9.0 mi SE 15.0 mph 27.6 mph N/A   Scattered Clouds
7:59 PM 60.8 °F - 41.0 °F 48% 29.99 in 9.0 mi South 19.6 mph 25.3 mph N/A   Mostly Cloudy
8:00 PM 62 °F - 41 °F 34% 29.99 in 10 mi South 17.3 mph - -  
8:00 PM 60.8 °F - 41.0 °F 48% 29.99 in 9.0 mi South 17.3 mph 24.2 mph N/A   Mostly Cloudy
9:00 PM 57.2 °F - 42.8 °F 59% 30.02 in 9.0 mi South 11.5 mph 19.6 mph N/A   Mostly Cloudy
10:00 PM 55.4 °F - 44.6 °F 67% 30.02 in 9.0 mi South 8.1 mph - N/A   Mostly Cloudy
11:00 PM 55.4 °F - 42.8 °F 63% 30.01 in 9.0 mi SSE 10.4 mph 17.3 mph N/A   Overcast